| time (UTC) | temp F | wind direction | speed knots | gust knots | rain 1hr in | rain 24hr in | rain mn in | humidity % | barometer mb |
| 20260507232547 | 46 | 219 | 4.3 | 13.0 | 0.00 | 0.00 | 0.00 | 72 | 1013.1 |
| 20260507232047 | 46 | 193 | 6.1 | 13.0 | 0.00 | 0.00 | 0.00 | 72 | 1013.0 |
| 20260507231554 | 46 | 200 | 3.5 | 10.4 | 0.00 | 0.00 | 0.00 | 72 | 1013.0 |
| 20260507231049 | 46 | 222 | 4.3 | 11.3 | 0.00 | 0.00 | 0.00 | 72 | 1013.0 |
| 20260507230548 | 46 | 196 | 6.1 | 13.0 | 0.00 | 0.00 | 0.00 | 72 | 1012.9 |
| 20260507230054 | 46 | 192 | 5.2 | 13.0 | 0.00 | 0.00 | 0.00 | 72 | 1012.9 |
| 20260507225547 | 46 | 210 | 3.5 | 9.6 | 0.00 | 0.00 | 0.00 | 72 | 1013.1 |
| 20260507225051 | 46 | 178 | 4.3 | 13.0 | 0.00 | 0.00 | 0.00 | 72 | 1013.0 |
| 20260507224558 | 46 | 208 | 5.2 | 13.9 | 0.00 | 0.00 | 0.00 | 72 | 1012.9 |
| 20260507224048 | 46 | 192 | 6.1 | 13.9 | 0.00 | 0.00 | 0.00 | 72 | 1012.8 |
| 20260507223547 | 46 | 203 | 4.3 | 11.3 | 0.00 | 0.00 | 0.00 | 72 | 1012.8 |
| 20260507223052 | 46 | 179 | 4.3 | 10.4 | 0.00 | 0.00 | 0.00 | 72 | 1012.9 |
| 20260507222549 | 46 | 196 | 4.3 | 11.3 | 0.00 | 0.00 | 0.00 | 72 | 1012.9 |
| 20260507222048 | 46 | 221 | 4.3 | 11.3 | 0.00 | 0.00 | 0.00 | 72 | 1012.9 |
| 20260507221553 | 46 | 124 | 4.3 | 12.2 | 0.00 | 0.00 | 0.00 | 72 | 1012.8 |
| 20260507221047 | 46 | 190 | 3.5 | 12.2 | 0.00 | 0.00 | 0.00 | 72 | 1012.9 |
| 20260507220547 | 46 | 180 | 4.3 | 12.2 | 0.00 | 0.00 | 0.00 | 72 | 1012.8 |
| 20260507220056 | 46 | 195 | 4.3 | 11.3 | 0.00 | 0.00 | 0.00 | 72 | 1012.9 |
| 20260507215550 | 46 | 194 | 4.3 | 11.3 | 0.00 | 0.00 | 0.00 | 72 | 1012.8 |
| 20260507215047 | 46 | 192 | 4.3 | 12.2 | 0.00 | 0.00 | 0.00 | 72 | 1012.8 |
| 20260507214604 | 46 | 214 | 4.3 | 12.2 | 0.00 | 0.00 | 0.00 | 72 | 1012.9 |
| 20260507214048 | 46 | 211 | 4.3 | 13.0 | 0.00 | 0.00 | 0.00 | 72 | 1012.9 |
| 20260507213548 | 47 | 261 | 5.2 | 13.9 | 0.00 | 0.00 | 0.00 | 71 | 1012.9 |
| 20260507213102 | 47 | 200 | 7.0 | 16.5 | 0.00 | 0.00 | 0.00 | 71 | 1012.8 |
| 20260507212550 | 47 | 167 | 7.8 | 16.5 | 0.00 | 0.00 | 0.00 | 71 | 1012.8 |
| 20260507212048 | 47 | 224 | 7.0 | 16.5 | 0.00 | 0.00 | 0.00 | 71 | 1012.7 |
| 20260507211554 | 47 | 159 | 7.8 | 16.5 | 0.00 | 0.00 | 0.00 | 71 | 1012.6 |
| 20260507211048 | 47 | 192 | 7.0 | 14.8 | 0.00 | 0.00 | 0.00 | 71 | 1012.7 |
| 20260507210548 | 47 | 227 | 6.1 | 14.8 | 0.00 | 0.00 | 0.00 | 70 | 1012.7 |
| 20260507210051 | 47 | 205 | 5.2 | 14.8 | 0.00 | 0.00 | 0.00 | 70 | 1012.9 |
| 20260507205550 | 47 | 227 | 7.0 | 13.9 | 0.00 | 0.00 | 0.00 | 70 | 1013.0 |
| 20260507205048 | 47 | 179 | 5.2 | 13.0 | 0.00 | 0.00 | 0.00 | 70 | 1013.0 |
| 20260507204553 | 47 | 182 | 4.3 | 12.2 | 0.00 | 0.00 | 0.00 | 70 | 1013.0 |
| 20260507204048 | 47 | 173 | 4.3 | 12.2 | 0.00 | 0.00 | 0.00 | 70 | 1012.9 |
| 20260507203552 | 47 | 240 | 2.6 | 12.2 | 0.00 | 0.00 | 0.00 | 70 | 1013.0 |
| 20260507203051 | 48 | 171 | 3.5 | 10.4 | 0.00 | 0.00 | 0.00 | 69 | 1013.0 |
| 20260507202552 | 48 | 175 | 3.5 | 7.0 | 0.00 | 0.00 | 0.00 | 69 | 1013.1 |
| 20260507202050 | 48 | 202 | 2.6 | 7.8 | 0.00 | 0.00 | 0.00 | 69 | 1013.1 |
| 20260507201550 | 48 | 210 | 0.9 | 7.8 | 0.00 | 0.00 | 0.00 | 69 | 1013.0 |
| 20260507201048 | 48 | 173 | 1.7 | 6.1 | 0.00 | 0.00 | 0.00 | 69 | 1013.0 |
| 20260507200550 | 48 | 205 | 2.6 | 8.7 | 0.00 | 0.00 | 0.00 | 68 | 1013.0 |
| 20260507200057 | 48 | 198 | 3.5 | 9.6 | 0.00 | 0.00 | 0.00 | 68 | 1013.0 |
| 20260507195546 | 48 | 218 | 5.2 | 9.6 | 0.00 | 0.00 | 0.00 | 68 | 1013.0 |
| 20260507195047 | 48 | 213 | 4.3 | 7.8 | 0.00 | 0.00 | 0.00 | 68 | 1012.9 |
| 20260507194617 | 48 | 213 | 3.5 | 9.6 | 0.00 | 0.00 | 0.00 | 68 | 1012.8 |
| 20260507194050 | 49 | 211 | 2.6 | 10.4 | 0.00 | 0.00 | 0.00 | 67 | 1012.8 |
| 20260507193550 | 49 | 202 | 5.2 | 10.4 | 0.00 | 0.00 | 0.00 | 67 | 1012.8 |
| 20260507193055 | 49 | 196 | 4.3 | 10.4 | 0.00 | 0.00 | 0.00 | 67 | 1012.8 |
| 20260507192550 | 49 | 160 | 4.3 | 10.4 | 0.00 | 0.00 | 0.00 | 67 | 1012.8 |
| 20260507192049 | 49 | 183 | 3.5 | 8.7 | 0.00 | 0.00 | 0.00 | 66 | 1012.8 |
| 20260507191554 | 49 | 209 | 3.5 | 9.6 | 0.00 | 0.00 | 0.00 | 66 | 1012.9 |
| 20260507191051 | 49 | 185 | 3.5 | 9.6 | 0.00 | 0.00 | 0.00 | 66 | 1012.8 |
| 20260507190550 | 49 | 218 | 5.2 | 9.6 | 0.00 | 0.00 | 0.00 | 66 | 1012.7 |
| 20260507190100 | 49 | 185 | 5.2 | 9.6 | 0.00 | 0.00 | 0.00 | 65 | 1012.9 |
| 20260507185550 | 50 | 215 | 4.3 | 8.7 | 0.00 | 0.00 | 0.00 | 65 | 1012.8 |
| 20260507185051 | 50 | 212 | 3.5 | 9.6 | 0.00 | 0.00 | 0.00 | 64 | 1012.8 |
| 20260507184554 | 50 | 165 | 4.3 | 10.4 | 0.00 | 0.00 | 0.00 | 64 | 1012.8 |
| 20260507184050 | 50 | 195 | 5.2 | 10.4 | 0.00 | 0.00 | 0.00 | 64 | 1012.6 |
| 20260507183550 | 50 | 236 | 4.3 | 13.0 | 0.00 | 0.00 | 0.00 | 63 | 1012.5 |
| 20260507183056 | 50 | 209 | 4.3 | 13.9 | 0.00 | 0.00 | 0.00 | 63 | 1012.5 |
| 20260507182550 | 50 | 225 | 5.2 | 13.9 | 0.00 | 0.00 | 0.00 | 62 | 1012.6 |
| 20260507182052 | 50 | 188 | 6.1 | 12.2 | 0.00 | 0.00 | 0.00 | 61 | 1012.4 |
| 20260507181558 | 51 | 181 | 4.3 | 16.5 | 0.00 | 0.00 | 0.00 | 61 | 1012.3 |
| 20260507181049 | 51 | 211 | 5.2 | 16.5 | 0.00 | 0.00 | 0.00 | 61 | 1012.3 |
| 20260507180552 | 51 | 188 | 7.8 | 16.5 | 0.00 | 0.00 | 0.00 | 60 | 1012.3 |
| 20260507180055 | 51 | 195 | 7.0 | 13.9 | 0.00 | 0.00 | 0.00 | 60 | 1012.2 |
| 20260507175549 | 51 | 227 | 5.2 | 16.5 | 0.00 | 0.00 | 0.00 | 60 | 1012.2 |
| 20260507175049 | 51 | 218 | 7.0 | 16.5 | 0.00 | 0.00 | 0.00 | 60 | 1012.3 |
| 20260507174601 | 51 | 207 | 7.8 | 14.8 | 0.00 | 0.00 | 0.00 | 61 | 1012.2 |
| 20260507174048 | 51 | 213 | 5.2 | 12.2 | 0.00 | 0.00 | 0.00 | 60 | 1012.2 |
| 20260507173550 | 51 | 182 | 6.1 | 17.4 | 0.00 | 0.00 | 0.00 | 59 | 1012.2 |
| 20260507173127 | 51 | 203 | 7.0 | 19.1 | 0.00 | 0.00 | 0.00 | 58 | 1012.1 |
| 20260507172550 | 52 | 192 | 7.0 | 20.0 | 0.00 | 0.00 | 0.00 | 57 | 1012.0 |
| 20260507172049 | 53 | 215 | 8.7 | 20.0 | 0.00 | 0.00 | 0.00 | 56 | 1012.0 |
| 20260507171608 | 53 | 227 | 8.7 | 16.5 | 0.00 | 0.00 | 0.00 | 56 | 1012.1 |
| 20260507171050 | 53 | 242 | 7.8 | 13.9 | 0.00 | 0.00 | 0.00 | 57 | 1012.1 |
| 20260507170550 | 53 | 245 | 6.1 | 13.9 | 0.00 | 0.00 | 0.00 | 56 | 1012.3 |
| 20260507170110 | 53 | 210 | 5.2 | 17.4 | 0.00 | 0.00 | 0.00 | 57 | 1012.4 |
| 20260507165549 | 52 | 189 | 6.1 | 17.4 | 0.00 | 0.00 | 0.00 | 58 | 1012.4 |
| 20260507165049 | 52 | 148 | 7.0 | 14.8 | 0.00 | 0.00 | 0.00 | 58 | 1012.4 |
| 20260507164559 | 52 | 178 | 7.0 | 14.8 | 0.00 | 0.00 | 0.00 | 58 | 1012.4 |
| 20260507164050 | 52 | 190 | 6.1 | 14.8 | 0.00 | 0.00 | 0.00 | 57 | 1012.5 |
| 20260507163550 | 53 | 213 | 4.3 | 13.0 | 0.00 | 0.00 | 0.00 | 56 | 1012.6 |
| 20260507163054 | 52 | 208 | 6.1 | 13.0 | 0.00 | 0.00 | 0.00 | 56 | 1012.5 |
| 20260507162550 | 52 | 182 | 5.2 | 13.9 | 0.00 | 0.00 | 0.00 | 57 | 1012.5 |
| 20260507162049 | 52 | 203 | 7.0 | 13.9 | 0.00 | 0.00 | 0.00 | 56 | 1012.5 |
| 20260507161604 | 52 | 217 | 6.1 | 15.6 | 0.00 | 0.00 | 0.00 | 57 | 1012.5 |
| 20260507161046 | 52 | 236 | 6.1 | 15.6 | 0.00 | 0.00 | 0.00 | 56 | 1012.5 |
| 20260507160549 | 52 | 198 | 8.7 | 13.9 | 0.00 | 0.00 | 0.00 | 55 | 1012.5 |
| 20260507160051 | 52 | 200 | 6.1 | 15.6 | 0.00 | 0.00 | 0.00 | 55 | 1012.6 |
| 20260507155545 | 53 | 195 | 7.0 | 15.6 | 0.00 | 0.00 | 0.00 | 55 | 1012.6 |
| 20260507155048 | 52 | 237 | 6.1 | 20.0 | 0.00 | 0.00 | 0.00 | 54 | 1012.6 |
| 20260507154554 | 53 | 181 | 8.7 | 20.0 | 0.00 | 0.00 | 0.00 | 54 | 1012.7 |
| 20260507154050 | 52 | 189 | 7.0 | 13.9 | 0.00 | 0.00 | 0.00 | 53 | 1012.6 |
| 20260507153549 | 53 | 183 | 7.0 | 13.9 | 0.00 | 0.00 | 0.00 | 53 | 1012.6 |
| 20260507153057 | 53 | 202 | 7.0 | 13.0 | 0.00 | 0.00 | 0.00 | 54 | 1012.7 |
| 20260507152548 | 53 | 169 | 6.1 | 11.3 | 0.00 | 0.00 | 0.00 | 55 | 1012.6 |
| 20260507152049 | 53 | 192 | 6.1 | 13.0 | 0.00 | 0.00 | 0.00 | 55 | 1012.5 |
| 20260507151551 | 53 | 196 | 4.3 | 13.9 | 0.00 | 0.00 | 0.00 | 56 | 1012.6 |
| 20260507151047 | 53 | 230 | 5.2 | 14.8 | 0.00 | 0.00 | 0.00 | 56 | 1012.7 |
| 20260507150548 | 52 | 174 | 6.1 | 14.8 | 0.00 | 0.00 | 0.00 | 57 | 1012.7 |
| 20260507150100 | 52 | 185 | 5.2 | 14.8 | 0.00 | 0.00 | 0.00 | 58 | 1012.8 |
| 20260507145549 | 52 | 234 | 7.8 | 14.8 | 0.00 | 0.00 | 0.00 | 58 | 1012.8 |
| 20260507145049 | 52 | 168 | 6.1 | 13.0 | 0.00 | 0.00 | 0.00 | 59 | 1012.8 |
| 20260507144557 | 52 | 186 | 4.3 | 12.2 | 0.00 | 0.00 | 0.00 | 60 | 1012.8 |
| 20260507144049 | 51 | 176 | 6.1 | 18.2 | 0.00 | 0.00 | 0.00 | 60 | 1012.8 |
| 20260507143545 | 50 | 204 | 6.1 | 18.2 | 0.00 | 0.00 | 0.00 | 61 | 1012.8 |
| 20260507143059 | 50 | 217 | 7.8 | 14.8 | 0.00 | 0.00 | 0.00 | 61 | 1012.8 |
| 20260507142548 | 50 | 239 | 4.3 | 13.0 | 0.00 | 0.00 | 0.00 | 62 | 1013.0 |
| 20260507142049 | 50 | 180 | 7.0 | 14.8 | 0.00 | 0.00 | 0.00 | 62 | 1012.9 |
| 20260507141628 | 50 | 178 | 8.7 | 14.8 | 0.00 | 0.00 | 0.00 | 62 | 1013.1 |
| 20260507141051 | 50 | 161 | 5.2 | 14.8 | 0.00 | 0.00 | 0.00 | 62 | 1013.1 |
| 20260507140547 | 50 | 206 | 7.0 | 14.8 | 0.00 | 0.00 | 0.00 | 62 | 1013.1 |
| 20260507140051 | 50 | 205 | 6.1 | 18.2 | 0.00 | 0.00 | 0.00 | 63 | 1013.2 |
| 20260507135546 | 50 | 148 | 7.0 | 18.2 | 0.00 | 0.00 | 0.00 | 62 | 1013.3 |
| 20260507135047 | 49 | 194 | 7.8 | 16.5 | 0.00 | 0.00 | 0.00 | 63 | 1013.5 |
| 20260507134559 | 50 | 198 | 5.2 | 16.5 | 0.00 | 0.00 | 0.00 | 63 | 1013.4 |
| 20260507134045 | 49 | 189 | 7.8 | 14.8 | 0.00 | 0.00 | 0.00 | 63 | 1013.4 |
| 20260507133549 | 49 | 215 | 4.3 | 16.5 | 0.00 | 0.00 | 0.00 | 64 | 1013.2 |
| 20260507133104 | 49 | 239 | 7.0 | 19.1 | 0.00 | 0.00 | 0.00 | 64 | 1013.3 |
| 20260507132545 | 49 | 237 | 6.1 | 19.1 | 0.00 | 0.00 | 0.00 | 64 | 1013.3 |
| 20260507132049 | 49 | 227 | 7.8 | 19.1 | 0.00 | 0.00 | 0.00 | 64 | 1013.3 |
| 20260507131555 | 49 | 238 | 8.7 | 19.1 | 0.00 | 0.00 | 0.00 | 64 | 1013.2 |
| 20260507131050 | 49 | 214 | 9.6 | 16.5 | 0.00 | 0.00 | 0.00 | 63 | 1013.1 |
| 20260507130550 | 49 | 197 | 7.8 | 16.5 | 0.00 | 0.00 | 0.00 | 63 | 1013.2 |
| 20260507130054 | 49 | 221 | 8.7 | 17.4 | 0.00 | 0.00 | 0.00 | 63 | 1013.2 |
| 20260507125551 | 49 | 213 | 8.7 | 17.4 | 0.00 | 0.00 | 0.00 | 63 | 1013.1 |
| 20260507125049 | 49 | 242 | 7.8 | 14.8 | 0.00 | 0.00 | 0.00 | 63 | 1013.2 |
| 20260507124554 | 49 | 213 | 7.0 | 17.4 | 0.00 | 0.00 | 0.00 | 63 | 1013.2 |
| 20260507124049 | 49 | 207 | 7.8 | 17.4 | 0.00 | 0.00 | 0.00 | 63 | 1013.1 |
| 20260507123550 | 49 | 209 | 7.0 | 15.6 | 0.00 | 0.00 | 0.00 | 64 | 1013.2 |
| 20260507123055 | 48 | 186 | 4.3 | 15.6 | 0.00 | 0.00 | 0.00 | 66 | 1013.2 |
| 20260507122549 | 48 | 189 | 6.1 | 15.6 | 0.00 | 0.00 | 0.00 | 66 | 1013.3 |
| 20260507122047 | 48 | 180 | 4.3 | 13.9 | 0.00 | 0.00 | 0.00 | 66 | 1013.3 |
| 20260507121555 | 47 | 182 | 7.0 | 13.0 | 0.00 | 0.00 | 0.00 | 67 | 1013.5 |
| 20260507121051 | 47 | 208 | 4.3 | 13.0 | 0.00 | 0.00 | 0.00 | 67 | 1013.4 |
| 20260507120551 | 47 | 209 | 4.3 | 15.6 | 0.00 | 0.00 | 0.00 | 68 | 1013.4 |
| 20260507115550 | 46 | 150 | 5.2 | 15.6 | 0.00 | 0.00 | 0.00 | 69 | 1013.5 |
| 20260507115054 | 46 | 198 | 5.2 | 15.6 | 0.00 | 0.00 | 0.00 | 69 | 1013.5 |
| 20260507114605 | 46 | 198 | 6.1 | 13.0 | 0.00 | 0.00 | 0.00 | 69 | 1013.5 |
| 20260507114052 | 45 | 161 | 6.1 | 14.8 | 0.00 | 0.00 | 0.00 | 69 | 1013.7 |
| 20260507113551 | 45 | 200 | 6.1 | 15.6 | 0.00 | 0.00 | 0.00 | 69 | 1013.6 |
| 20260507113054 | 45 | 194 | 7.8 | 15.6 | 0.00 | 0.00 | 0.00 | 68 | 1013.7 |
| 20260507112550 | 45 | 153 | 6.1 | 17.4 | 0.00 | 0.00 | 0.00 | 69 | 1013.7 |
| 20260507112050 | 46 | 209 | 7.0 | 17.4 | 0.00 | 0.00 | 0.00 | 69 | 1013.7 |
| 20260507111552 | 46 | 195 | 3.5 | 11.3 | 0.00 | 0.00 | 0.00 | 69 | 1013.7 |
| 20260507111047 | 46 | 190 | 4.3 | 13.0 | 0.00 | 0.00 | 0.00 | 68 | 1013.8 |
| 20260507110551 | 46 | 180 | 3.5 | 13.9 | 0.00 | 0.00 | 0.00 | 67 | 1013.8 |
| 20260507105549 | 46 | 206 | 6.1 | 12.2 | 0.00 | 0.00 | 0.00 | 66 | 1014.0 |
| 20260507105050 | 46 | 203 | 4.3 | 11.3 | 0.00 | 0.00 | 0.00 | 66 | 1014.1 |
| 20260507104554 | 47 | 234 | 4.3 | 10.4 | 0.00 | 0.00 | 0.00 | 65 | 1014.0 |
| 20260507104051 | 47 | 239 | 3.5 | 8.7 | 0.00 | 0.00 | 0.00 | 64 | 1014.1 |
| 20260507103551 | 47 | 217 | 2.6 | 8.7 | 0.00 | 0.00 | 0.00 | 64 | 1014.0 |
| 20260507103053 | 47 | 208 | 1.7 | 8.7 | 0.00 | 0.00 | 0.00 | 65 | 1014.0 |
| 20260507102550 | 47 | 191 | 3.5 | 8.7 | 0.00 | 0.00 | 0.00 | 64 | 1014.1 |
| 20260507102048 | 47 | 175 | 2.6 | 12.2 | 0.00 | 0.00 | 0.00 | 65 | 1014.1 |
| 20260507101558 | 47 | 216 | 5.2 | 12.2 | 0.00 | 0.00 | 0.00 | 64 | 1014.1 |
| 20260507101050 | 47 | 186 | 2.6 | 8.7 | 0.00 | 0.00 | 0.00 | 63 | 1014.0 |
| 20260507100546 | 48 | 223 | 3.5 | 9.6 | 0.00 | 0.00 | 0.00 | 64 | 1014.0 |
| 20260507100051 | 48 | 221 | 3.5 | 9.6 | 0.00 | 0.00 | 0.00 | 64 | 1014.0 |
| 20260507095546 | 48 | 191 | 3.5 | 9.6 | 0.00 | 0.00 | 0.00 | 64 | 1014.0 |
| 20260507095049 | 48 | 166 | 3.5 | 9.6 | 0.00 | 0.00 | 0.00 | 64 | 1013.9 |
| 20260507094556 | 48 | 192 | 5.2 | 9.6 | 0.00 | 0.00 | 0.00 | 63 | 1013.8 |
| 20260507094048 | 49 | 201 | 2.6 | 9.6 | 0.00 | 0.00 | 0.00 | 65 | 1014.0 |
| 20260507093548 | 49 | 233 | 2.6 | 7.8 | 0.00 | 0.00 | 0.00 | 64 | 1013.9 |
| 20260507093052 | 49 | 200 | 2.6 | 7.8 | 0.00 | 0.00 | 0.00 | 64 | 1013.8 |
| 20260507092549 | 49 | 246 | 3.5 | 7.8 | 0.00 | 0.00 | 0.00 | 64 | 1013.7 |
| 20260507092049 | 49 | 194 | 2.6 | 8.7 | 0.00 | 0.00 | 0.00 | 64 | 1013.8 |
| 20260507091549 | 49 | 215 | 1.7 | 8.7 | 0.00 | 0.00 | 0.00 | 64 | 1013.7 |
| 20260507091048 | 48 | 221 | 3.5 | 12.2 | 0.00 | 0.00 | 0.00 | 64 | 1013.7 |
| 20260507090550 | 48 | 194 | 4.3 | 12.2 | 0.00 | 0.00 | 0.00 | 63 | 1013.7 |
| 20260507090055 | 48 | 200 | 1.7 | 8.7 | 0.00 | 0.00 | 0.00 | 64 | 1013.8 |
| 20260507085546 | 48 | 179 | 2.6 | 8.7 | 0.00 | 0.00 | 0.00 | 63 | 1013.7 |
| 20260507085047 | 48 | 207 | 4.3 | 9.6 | 0.00 | 0.00 | 0.00 | 63 | 1013.8 |
| 20260507084550 | 48 | 196 | 4.3 | 9.6 | 0.00 | 0.00 | 0.00 | 63 | 1013.7 |
| 20260507084047 | 49 | 211 | 3.5 | 16.5 | 0.00 | 0.00 | 0.00 | 64 | 1013.7 |
| 20260507083549 | 48 | 201 | 6.1 | 16.5 | 0.00 | 0.00 | 0.00 | 63 | 1013.7 |
| 20260507083051 | 49 | 193 | 6.1 | 12.2 | 0.00 | 0.00 | 0.00 | 64 | 1013.8 |
| 20260507082548 | 49 | 178 | 4.3 | 12.2 | 0.00 | 0.00 | 0.00 | 64 | 1013.8 |
| 20260507082047 | 48 | 234 | 3.5 | 10.4 | 0.00 | 0.00 | 0.00 | 64 | 1013.8 |
| 20260507081552 | 48 | 206 | 0.9 | 7.8 | 0.00 | 0.00 | 0.00 | 65 | 1013.7 |
| 20260507081050 | 48 | 204 | 3.5 | 7.8 | 0.00 | 0.00 | 0.00 | 66 | 1013.7 |
| 20260507080547 | 47 | 104 | 1.7 | 7.0 | 0.00 | 0.00 | 0.00 | 66 | 1013.8 |
| 20260507080052 | 47 | 163 | 2.6 | 7.0 | 0.00 | 0.00 | 0.00 | 67 | 1013.7 |
| 20260507075547 | 46 | 217 | 1.7 | 4.3 | 0.00 | 0.00 | 0.00 | 68 | 1013.9 |
| 20260507075052 | 46 | 213 | 0.9 | 7.0 | 0.00 | 0.00 | 0.00 | 68 | 1013.9 |
| 20260507074554 | 45 | 166 | 1.7 | 7.8 | 0.00 | 0.00 | 0.00 | 68 | 1014.0 |
| 20260507074046 | 46 | 157 | 3.5 | 7.8 | 0.00 | 0.00 | 0.00 | 68 | 1014.0 |
| 20260507073550 | 45 | 186 | 2.6 | 6.1 | 0.00 | 0.00 | 0.00 | 69 | 1013.8 |
| 20260507073128 | 45 | 196 | 0.9 | 8.7 | 0.00 | 0.00 | 0.00 | 69 | 1013.8 |
| 20260507072547 | 44 | 149 | 2.6 | 8.7 | 0.00 | 0.00 | 0.00 | 70 | 1013.9 |
| 20260507072128 | 44 | 29 | 1.7 | 4.3 | 0.00 | 0.00 | 0.00 | 71 | 1013.8 |
| 20260507071552 | 43 | 69 | 0.9 | 3.5 | 0.00 | 0.00 | 0.00 | 71 | 1013.9 |
| 20260507071050 | 43 | 0 | 0.0 | 6.1 | 0.00 | 0.00 | 0.00 | 71 | 1013.8 |
| 20260507070550 | 43 | 119 | 0.9 | 6.1 | 0.00 | 0.00 | 0.00 | 71 | 1013.8 |
| 20260507070053 | 43 | 201 | 1.7 | 12.2 | 0.00 | 0.00 | 0.00 | 70 | 1013.8 |
| 20260507065549 | 42 | 179 | 3.5 | 12.2 | 0.00 | 0.00 | 0.00 | 70 | 1013.8 |
| 20260507065049 | 42 | 130 | 0.9 | 7.8 | 0.00 | 0.00 | 0.00 | 70 | 1013.8 |
| 20260507064608 | 42 | 229 | 1.7 | 9.6 | 0.00 | 0.00 | 0.00 | 70 | 1013.8 |
| 20260507064052 | 42 | 197 | 1.7 | 9.6 | 0.00 | 0.00 | 0.00 | 70 | 1013.8 |
| 20260507063550 | 42 | 161 | 3.5 | 7.8 | 0.00 | 0.00 | 0.00 | 70 | 1013.8 |
| 20260507063057 | 42 | 146 | 0.9 | 5.2 | 0.00 | 0.00 | 0.00 | 71 | 1013.9 |
| 20260507062550 | 41 | 202 | 0.9 | 6.1 | 0.00 | 0.00 | 0.00 | 72 | 1013.9 |
| 20260507062050 | 41 | 0 | 0.9 | 6.1 | 0.00 | 0.00 | 0.00 | 72 | 1013.8 |
| 20260507061553 | 40 | 188 | 0.9 | 6.1 | 0.00 | 0.00 | 0.00 | 74 | 1013.9 |
| 20260507061049 | 39 | 43 | 1.7 | 3.5 | 0.00 | 0.00 | 0.00 | 74 | 1013.8 |
| 20260507060549 | 39 | 43 | 0.0 | 3.5 | 0.00 | 0.00 | 0.00 | 75 | 1013.9 |
| 20260507060054 | 39 | 0 | 0.0 | 1.7 | 0.00 | 0.00 | 0.00 | 76 | 1013.9 |
| 20260507055550 | 38 | 0 | 0.0 | 3.5 | 0.00 | 0.00 | 0.00 | 76 | 1013.9 |
| 20260507055049 | 38 | 0 | 1.7 | 3.5 | 0.00 | 0.00 | 0.00 | 77 | 1014.0 |
| 20260507054553 | 38 | 57 | 0.9 | 2.6 | 0.00 | 0.00 | 0.00 | 77 | 1014.0 |
| 20260507054049 | 38 | 57 | 0.0 | 2.6 | 0.00 | 0.00 | 0.00 | 77 | 1014.0 |
| 20260507053550 | 37 | 57 | 0.0 | 3.5 | 0.00 | 0.00 | 0.00 | 77 | 1014.0 |
| 20260507053055 | 37 | 0 | 0.9 | 3.5 | 0.00 | 0.00 | 0.00 | 77 | 1014.0 |
| 20260507052550 | 37 | 63 | 0.0 | 1.7 | 0.00 | 0.00 | 0.00 | 77 | 1013.9 |
| 20260507052050 | 37 | 63 | 0.0 | 3.5 | 0.00 | 0.00 | 0.00 | 76 | 1014.0 |
| 20260507051553 | 38 | 0 | 0.9 | 4.3 | 0.00 | 0.00 | 0.00 | 74 | 1014.0 |
| 20260507051049 | 38 | 62 | 1.7 | 4.3 | 0.00 | 0.00 | 0.00 | 73 | 1014.0 |
| 20260507050550 | 39 | 0 | 0.0 | 3.5 | 0.00 | 0.00 | 0.00 | 72 | 1014.0 |
| 20260507050058 | 39 | 0 | 0.0 | 6.1 | 0.00 | 0.00 | 0.00 | 71 | 1013.9 |
| 20260507045550 | 39 | 231 | 1.7 | 8.7 | 0.00 | 0.00 | 0.00 | 71 | 1013.9 |
| 20260507045047 | 39 | 176 | 2.6 | 8.7 | 0.00 | 0.00 | 0.00 | 72 | 1014.0 |
| 20260507044601 | 38 | 191 | 2.6 | 7.8 | 0.00 | 0.00 | 0.00 | 73 | 1014.1 |
| 20260507044051 | 38 | 128 | 0.9 | 3.5 | 0.00 | 0.00 | 0.00 | 74 | 1013.9 |
| 20260507043550 | 38 | 131 | 0.9 | 3.5 | 0.00 | 0.00 | 0.00 | 75 | 1014.1 |
| 20260507043055 | 37 | 134 | 1.7 | 3.5 | 0.00 | 0.00 | 0.00 | 77 | 1014.1 |
| 20260507042550 | 37 | 145 | 0.9 | 2.6 | 0.00 | 0.00 | 0.00 | 78 | 1014.2 |
| 20260507042050 | 36 | 0 | 0.0 | 1.7 | 0.00 | 0.00 | 0.00 | 77 | 1014.2 |
| 20260507041600 | 37 | 145 | 0.0 | 1.7 | 0.00 | 0.00 | 0.00 | 76 | 1014.1 |
| 20260507041050 | 37 | 0 | 0.0 | 1.7 | 0.00 | 0.00 | 0.00 | 76 | 1014.1 |
| 20260507040549 | 37 | 0 | 0.0 | 1.7 | 0.00 | 0.00 | 0.00 | 75 | 1013.9 |
| 20260507040104 | 37 | 145 | 0.0 | 1.7 | 0.00 | 0.00 | 0.00 | 74 | 1014.0 |
| 20260507035550 | 38 | 0 | 0.0 | 0.9 | 0.00 | 0.00 | 0.00 | 72 | 1014.0 |
| 20260507035050 | 39 | 0 | 0.0 | 0.9 | 0.00 | 0.00 | 0.00 | 70 | 1014.0 |
| 20260507034612 | 40 | 0 | 0.0 | 6.1 | 0.00 | 0.00 | 0.00 | 70 | 1014.2 |
| 20260507034050 | 40 | 0 | 0.9 | 6.1 | 0.00 | 0.00 | 0.00 | 69 | 1014.0 |
| 20260507033550 | 40 | 173 | 1.7 | 4.3 | 0.00 | 0.00 | 0.00 | 70 | 1014.1 |
| 20260507033105 | 40 | 151 | 1.7 | 4.3 | 0.00 | 0.00 | 0.00 | 70 | 1014.2 |
| 20260507032552 | 40 | 0 | 1.7 | 4.3 | 0.00 | 0.00 | 0.00 | 70 | 1014.3 |
| 20260507032046 | 40 | 0 | 0.9 | 6.1 | 0.00 | 0.00 | 0.00 | 69 | 1014.3 |
| 20260507031552 | 40 | 185 | 1.7 | 6.1 | 0.00 | 0.00 | 0.00 | 68 | 1014.3 |
| 20260507031050 | 40 | 190 | 1.7 | 7.0 | 0.00 | 0.00 | 0.00 | 68 | 1014.3 |
| 20260507030546 | 40 | 210 | 3.5 | 7.0 | 0.00 | 0.00 | 0.00 | 68 | 1014.4 |
| 20260507030053 | 40 | 208 | 2.6 | 7.8 | 0.00 | 0.00 | 0.00 | 68 | 1014.3 |
| 20260507025547 | 40 | 227 | 3.5 | 7.8 | 0.00 | 0.00 | 0.00 | 69 | 1014.4 |
| 20260507025047 | 40 | 217 | 2.6 | 6.1 | 0.00 | 0.00 | 0.00 | 69 | 1014.5 |
| 20260507024558 | 40 | 199 | 1.7 | 5.2 | 0.00 | 0.00 | 0.00 | 69 | 1014.4 |
| 20260507024051 | 40 | 184 | 1.7 | 4.3 | 0.00 | 0.00 | 0.00 | 70 | 1014.4 |
| 20260507023551 | 39 | 163 | 1.7 | 4.3 | 0.00 | 0.00 | 0.00 | 71 | 1014.4 |
| 20260507023053 | 39 | 170 | 0.9 | 2.6 | 0.00 | 0.00 | 0.00 | 73 | 1014.4 |
| 20260507022548 | 38 | 55 | 0.0 | 2.6 | 0.00 | 0.00 | 0.00 | 75 | 1014.3 |
| 20260507022050 | 38 | 61 | 0.0 | 1.7 | 0.00 | 0.00 | 0.00 | 76 | 1014.4 |
| 20260507021604 | 38 | 0 | 0.0 | 2.6 | 0.00 | 0.00 | 0.00 | 76 | 1014.4 |
| 20260507021050 | 38 | 0 | 0.0 | 2.6 | 0.00 | 0.00 | 0.00 | 76 | 1014.3 |
| 20260507020550 | 38 | 61 | 0.0 | 1.7 | 0.00 | 0.00 | 0.00 | 76 | 1014.4 |
| 20260507020052 | 38 | 0 | 0.9 | 1.7 | 0.00 | 0.00 | 0.00 | 76 | 1014.3 |
| 20260507015549 | 38 | 61 | 0.0 | 1.7 | 0.00 | 0.00 | 0.00 | 76 | 1014.4 |
| 20260507015049 | 37 | 61 | 0.0 | 0.9 | 0.00 | 0.00 | 0.00 | 77 | 1014.3 |
| 20260507014553 | 37 | 0 | 0.0 | 2.6 | 0.00 | 0.00 | 0.00 | 77 | 1014.4 |
| 20260507014047 | 37 | 0 | 0.0 | 2.6 | 0.00 | 0.00 | 0.00 | 77 | 1014.4 |
| 20260507013547 | 37 | 61 | 0.0 | 2.6 | 0.00 | 0.00 | 0.00 | 76 | 1014.5 |
| 20260507013106 | 37 | 0 | 0.0 | 0.0 | 0.00 | 0.00 | 0.00 | 77 | 1014.5 |
| 20260507012550 | 37 | 0 | 0.0 | 0.0 | 0.00 | 0.00 | 0.00 | 77 | 1014.5 |
| 20260507012048 | 37 | 0 | 0.0 | 1.7 | 0.00 | 0.00 | 0.00 | 77 | 1014.6 |
| 20260507011551 | 37 | 0 | 0.0 | 1.7 | 0.00 | 0.00 | 0.00 | 76 | 1014.6 |
| 20260507011050 | 37 | 0 | 0.0 | 1.7 | 0.00 | 0.00 | 0.00 | 77 | 1014.6 |
| 20260507010550 | 37 | 0 | 0.0 | 0.0 | 0.00 | 0.00 | 0.00 | 76 | 1014.7 |
| 20260507010054 | 37 | 0 | 0.0 | 0.9 | 0.00 | 0.00 | 0.00 | 76 | 1014.8 |
| 20260507005553 | 37 | 0 | 0.0 | 0.9 | 0.00 | 0.00 | 0.00 | 75 | 1014.9 |
| 20260507005049 | 37 | 0 | 0.0 | 0.9 | 0.00 | 0.00 | 0.00 | 75 | 1014.9 |
| 20260507004554 | 37 | 0 | 0.0 | 1.7 | 0.00 | 0.00 | 0.00 | 75 | 1014.9 |
| 20260507004048 | 37 | 0 | 0.0 | 2.6 | 0.00 | 0.00 | 0.00 | 74 | 1014.9 |
| 20260507003548 | 37 | 61 | 0.0 | 2.6 | 0.00 | 0.00 | 0.00 | 73 | 1014.9 |
| 20260507003051 | 37 | 61 | 0.0 | 1.7 | 0.00 | 0.00 | 0.00 | 73 | 1015.0 |
| 20260507002547 | 37 | 61 | 0.0 | 1.7 | 0.00 | 0.00 | 0.00 | 73 | 1015.0 |
| 20260507002047 | 37 | 0 | 0.0 | 0.9 | 0.00 | 0.00 | 0.00 | 73 | 1015.1 |
| 20260507001609 | 37 | 0 | 0.0 | 1.7 | 0.00 | 0.00 | 0.00 | 73 | 1015.2 |
| 20260507001051 | 37 | 0 | 0.0 | 2.6 | 0.00 | 0.00 | 0.00 | 73 | 1015.2 |
| 20260507000547 | 37 | 61 | 0.9 | 3.5 | 0.00 | 0.00 | 0.00 | 73 | 1015.2 |
| 20260507000053 | 37 | 61 | 0.9 | 3.5 | 0.00 | 0.00 | 0.00 | 72 | 1015.2 |
| 20260506235547 | 37 | 62 | 0.0 | 3.5 | 0.00 | 0.00 | 0.00 | 72 | 1015.1 |
| 20260506235050 | 38 | 0 | 0.0 | 4.3 | 0.00 | 0.00 | 0.00 | 71 | 1015.1 |
| 20260506234600 | 38 | 61 | 0.9 | 7.0 | 0.00 | 0.00 | 0.00 | 70 | 1015.1 |
| 20260506234050 | 38 | 112 | 1.7 | 7.8 | 0.00 | 0.00 | 0.00 | 70 | 1015.2 |
| 20260506233550 | 38 | 90 | 1.7 | 7.8 | 0.00 | 0.00 | 0.00 | 70 | 1015.1 |
| 20260506233056 | 38 | 133 | 2.6 | 7.8 | 0.00 | 0.00 | 0.00 | 70 | 1015.3 |